Left ArrowRight Arrow

Hourly Observations for April 5, 2016

Temp ( °F °C ) Dew Point ( °F °C ) Humidity (%) Winds ( mph kmh ) Pressure ( in mb ) Visibility ( mi km ) Precip ( " mm )
12:53 am 00:53 Clear 61 16.1 32 0 34 34 SSE 10 17 30.03 1017 10 16 0.00 0.00
1:53 am 01:53 Clear 60 15.6 34 1.1 38 38 SE 10 17 30.02 1017 10 16 0.00 0.00
2:53 am 02:53 Clear 60 15.6 34 1.1 38 38 SE 10 17 30.01 1016 10 16 0.00 0.00
3:53 am 03:53 Clear 57 13.9 36 2.2 45 45 SE 12 19 30.01 1016 10 16 0.00 0.00
4:53 am 04:53 Clear 59 15 38 3.3 46 46 SE 14 22 29.99 1016 10 16 0.00 0.00
5:53 am 05:53 Clear 57 13.9 39 3.9 51 51 SE 13 20 29.99 1016 10 16 0.00 0.00
6:53 am 06:53 Clear 58 14.4 39 3.9 50 50 ESE 15 24 29.99 1016 10 16 0.00 0.00
7:53 am 07:53 Sunny 56 13.3 40 4.4 55 55 SE 14 22 30.01 1016 10 16 0.00 0.00
8:53 am 08:53 Sunny 61 16.1 40 4.4 46 46 SE 14 22 30.02 1017 10 16 0.00 0.00
9:53 am 09:53 Sunny 67 19.4 40 4.4 37 37 SSE 15 24 30.03 1017 10 16 0.00 0.00
10:53 am 10:53 Sunny 73 22.8 39 3.9 29 29 SSE 14 22 30.03 1017 10 16 0.00 0.00
11:53 am 11:53 Sunny 78 25.6 38 3.3 24 24 SSE 14 22 30.01 1016 10 16 0.00 0.00
12:53 pm 12:53 Sunny 83 28.3 37 2.8 19 19 SSE 14 22 29.98 1015 10 16 0.00 0.00
1:53 pm 13:53 Sunny 86 30 35 1.7 16 16 SSE 15 24 29.93 1014 10 16 0.00 0.00
2:53 pm 14:53 Sunny 89 31.7 33 0.6 14 14 S 16 26 29.87 1012 10 16 0.00 0.00
3:53 pm 15:53 Sunny 90 32.2 34 1.1 14 14 SE 17 28 29.83 1010 10 16 0.00 0.00
4:53 pm 16:53 Sunny 90 32.2 35 1.7 14 14 SSE 21 33 29.80 1009 10 16 0.00 0.00
5:53 pm 17:53 Sunny 89 31.7 35 1.7 15 15 SE 21 33 29.78 1008 10 16 0.00 0.00
6:53 pm 18:53 Sunny 84 29 34 1 16 16 SE 16 26 29.68 1005 10 16 0.00 0.00
7:53 pm 19:53 Sunny 81 27.2 38 3.3 21 21 SE 18 30 29.78 1008 10 16 0.00 0.00
8:53 pm 20:53 Clear 77 25 39 3.9 26 26 SE 18 30 29.78 1008 10 16 0.00 0.00
9:53 pm 21:53 Clear 74 23.3 40 4.4 29 29 SSE 16 26 29.80 1009 10 16 0.00 0.00
10:53 pm 22:53 Clear 70 21.1 43 6.1 38 38 SSE 13 20 29.81 1009 10 16 0.00 0.00
11:53 pm 23:53 Clear 68 20 45 7.2 44 44 SE 13 20 29.81 1009 10 16 0.00 0.00

Powered by Vaisala Xweather